This is the latest recevied weather packets stored in our database for station/object KB3FKJ. If no packets are shown the sender has not sent any weather packets the latest 1 day(s).
| Time | Temp. | Humidity | Pressure | Rain* | Wind** | Luminosity | Snow |
|---|---|---|---|---|---|---|---|
| 1778097348 | 14.44° C | 86% | 1007.6 hPa | 0 mm | - | 139 W/m² | - |
| 1778095833 | 15° C | 86% | 1007.1 hPa | 0 mm | - | 160 W/m² | - |
| 1778094316 | 15.56° C | 87% | 1006.9 hPa | 0 mm | - | 90 W/m² | - |
| 1778093710 | 16.11° C | 87% | 1006.9 hPa | 0 mm | - | 52 W/m² | - |
| 1778091286 | 14.44° C | 93% | 1006.8 hPa | 0 mm | - | 91 W/m² | - |
| 1778090072 | 14.44° C | 96% | 1006.7 hPa | 1.27 mm | - | 111 W/m² | - |
| 1778088854 | 14.44° C | 95% | 1006.4 hPa | 0 mm | - | 83 W/m² | - |
| 1778088552 | 14.44° C | 95% | 1006.8 hPa | 0 mm | - | 67 W/m² | - |
| 1778087642 | 14.44° C | 94% | 1006.5 hPa | 0 mm | - | 53 W/m² | - |
| 1778084907 | 15.56° C | 94% | 1006.4 hPa | 0 mm | - | 237 W/m² | - |
| 1778081353 | 13.89° C | 93% | 1006.4 hPa | 0 mm | - | 55 W/m² | - |
| 1778079535 | 13.89° C | 93% | 1006.2 hPa | 0 mm | - | 36 W/m² | - |
| 1778077115 | 13.33° C | 93% | 1006 hPa | 0 mm | - | 47 W/m² | - |
| 1778075904 | 13.33° C | 93% | 1005.8 hPa | 0 mm | - | 51 W/m² | - |
| 1778075297 | 13.33° C | 93% | 1006 hPa | 0 mm | - | 56 W/m² | - |
| 1778074084 | 13.33° C | 93% | 1006 hPa | 0 mm | - | 52 W/m² | - |
| 1778073781 | 13.33° C | 92% | 1006 hPa | 0 mm | - | 49 W/m² | - |
| 1778072872 | 13.33° C | 91% | 1006.2 hPa | 0 mm | - | 24 W/m² | - |
| 1778072267 | 12.78° C | 92% | 1006.1 hPa | 0 mm | - | 41 W/m² | - |
| 1778071663 | 12.78° C | 92% | 1006 hPa | 0 mm | - | 15 W/m² | - |
| 1778071360 | 12.78° C | 92% | 1006.1 hPa | 0 mm | - | 8 W/m² | - |
| 1778070756 | 12.78° C | 93% | 1006 hPa | 0 mm | - | 30 W/m² | - |
| 1778069848 | 12.78° C | 95% | 1005.9 hPa | 3.05 mm | - | 39 W/m² | - |
| 1778068335 | 12.78° C | 95% | 1006.4 hPa | 1.27 mm | - | 15 W/m² | - |
| 1778067730 | 12.78° C | 95% | 1006.7 hPa | 1.78 mm | - | 14 W/m² | - |
* Rain latest hour (hover to see other rain measurements)
** Current wind speed in m/s (hover to see current wind gust speed)